| time (UTC) | temp C | wind direction | speed KPH | gust KPH | rain 1hr cm | rain 24hr cm | rain mn cm | humidity % | barometer mb |
| 20260510010141 | 9 | 315 | 1.6 | 17.7 | 0.00 | 1.27 | 1.27 | 99 | 1008.2 |
| 20260510005637 | 9 | 304 | 1.6 | 11.3 | 0.00 | 1.27 | 1.27 | 99 | 1008.4 |
| 20260510005134 | 9 | 299 | 1.6 | 4.8 | 0.00 | 1.27 | 1.27 | 99 | 1008.1 |
| 20260510004633 | 9 | 46 | 6.4 | 9.7 | 0.00 | 1.27 | 1.27 | 99 | 1008.2 |
| 20260510004131 | 9 | 352 | 3.2 | 6.4 | 0.00 | 1.27 | 1.27 | 99 | 1008.0 |
| 20260510003627 | 9 | 297 | 1.6 | 3.2 | 0.00 | 1.27 | 1.27 | 99 | 1008.0 |
| 20260510003123 | 9 | 295 | 1.6 | 3.2 | 0.00 | 1.27 | 1.27 | 99 | 1008.0 |
| 20260510002623 | 9 | 359 | 3.2 | 4.8 | 0.00 | 1.27 | 1.27 | 99 | 1007.9 |
| 20260510002121 | 9 | 345 | 0.0 | 4.8 | 0.00 | 1.27 | 1.27 | 98 | 1007.8 |
| 20260510001617 | 10 | 2 | 1.6 | 3.2 | 0.00 | 1.27 | 1.27 | 98 | 1007.6 |
| 20260510001117 | 10 | 32 | 3.2 | 6.4 | 0.00 | 1.27 | 1.27 | 98 | 1007.5 |
| 20260510000616 | 10 | 252 | 0.0 | 3.2 | 0.00 | 1.27 | 1.27 | 97 | 1007.6 |
| 20260510000114 | 10 | 260 | 1.6 | 4.8 | 0.00 | 1.27 | 1.27 | 97 | 1007.4 |
| 20260509235610 | 10 | 77 | 0.0 | 4.8 | 0.00 | 1.27 | 1.27 | 96 | 1007.8 |
| 20260509235107 | 10 | 289 | 4.8 | 9.7 | 0.00 | 1.27 | 1.27 | 95 | 1007.9 |
| 20260509234603 | 10 | 238 | 1.6 | 6.4 | 0.00 | 1.27 | 1.27 | 94 | 1007.9 |
| 20260509234101 | 10 | 333 | 4.8 | 9.7 | 0.00 | 1.27 | 1.27 | 94 | 1007.6 |
| 20260509233558 | 11 | 1 | 4.8 | 9.7 | 0.00 | 1.27 | 1.27 | 92 | 1007.6 |
| 20260509233055 | 11 | 140 | 3.2 | 11.3 | 0.00 | 1.27 | 1.27 | 92 | 1007.8 |
| 20260509232552 | 11 | 113 | 4.8 | 6.4 | 0.00 | 1.27 | 1.27 | 92 | 1007.6 |
| 20260509232049 | 11 | 313 | 0.0 | 4.8 | 0.00 | 1.27 | 1.27 | 92 | 1007.3 |
| 20260509231544 | 11 | 64 | 1.6 | 4.8 | 0.00 | 1.27 | 1.27 | 92 | 1007.2 |
| 20260509231043 | 11 | 43 | 6.4 | 9.7 | 0.00 | 1.27 | 1.27 | 91 | 1007.3 |
| 20260509230539 | 11 | 311 | 3.2 | 4.8 | 0.00 | 1.27 | 1.27 | 92 | 1007.5 |
| 20260509230037 | 11 | 265 | 1.6 | 4.8 | 0.00 | 1.27 | 1.27 | 91 | 1007.4 |
| 20260509225532 | 11 | 328 | 1.6 | 3.2 | 0.00 | 1.27 | 1.27 | 92 | 1007.3 |
| 20260509225027 | 11 | 193 | 3.2 | 4.8 | 0.00 | 1.27 | 1.27 | 93 | 1007.3 |
| 20260509224523 | 11 | 30 | 0.0 | 3.2 | 0.00 | 1.27 | 1.27 | 92 | 1007.5 |
| 20260509224020 | 11 | 348 | 3.2 | 9.7 | 0.00 | 1.27 | 1.27 | 92 | 1007.5 |
| 20260509223517 | 11 | 128 | 6.4 | 6.4 | 0.00 | 1.27 | 1.27 | 93 | 1007.5 |
| 20260509223015 | 11 | 29 | 1.6 | 3.2 | 0.00 | 1.27 | 1.27 | 93 | 1007.4 |
| 20260509222511 | 11 | 334 | 4.8 | 6.4 | 0.00 | 1.27 | 1.27 | 92 | 1007.6 |
| 20260509222006 | 11 | 12 | 3.2 | 11.3 | 0.00 | 1.27 | 1.27 | 92 | 1007.3 |
| 20260509221503 | 11 | 331 | 6.4 | 6.4 | 0.00 | 1.27 | 1.27 | 92 | 1007.5 |
| 20260509220958 | 11 | 230 | 4.8 | 6.4 | 0.00 | 1.27 | 1.27 | 92 | 1007.4 |
| 20260509220455 | 11 | 31 | 0.0 | 3.2 | 0.00 | 1.27 | 1.27 | 94 | 1007.4 |
| 20260509215951 | 10 | 124 | 6.4 | 11.3 | 0.00 | 1.27 | 1.27 | 94 | 1007.5 |
| 20260509215446 | 11 | 14 | 0.0 | 11.3 | 0.00 | 1.27 | 1.27 | 95 | 1007.6 |
| 20260509214944 | 11 | 97 | 4.8 | 9.7 | 0.00 | 1.27 | 1.27 | 94 | 1007.6 |
| 20260509214441 | 11 | 0 | 6.4 | 11.3 | 0.00 | 1.27 | 1.27 | 93 | 1007.6 |
| 20260509213937 | 11 | 25 | 1.6 | 4.8 | 0.00 | 1.27 | 1.27 | 95 | 1007.4 |
| 20260509213433 | 11 | 49 | 4.8 | 6.4 | 0.00 | 1.27 | 1.27 | 94 | 1007.5 |
| 20260509212931 | 11 | 123 | 3.2 | 6.4 | 0.00 | 1.27 | 1.27 | 96 | 1007.6 |
| 20260509212429 | 10 | 10 | 3.2 | 4.8 | 0.00 | 1.27 | 1.27 | 97 | 1008.0 |
| 20260509211925 | 10 | 126 | 0.0 | 1.6 | 0.00 | 1.27 | 1.27 | 98 | 1008.0 |
| 20260509211420 | 10 | 289 | 3.2 | 6.4 | 0.00 | 1.27 | 1.27 | 98 | 1007.9 |
| 20260509210917 | 10 | 27 | 0.0 | 6.4 | 0.00 | 1.27 | 1.27 | 98 | 1007.8 |
| 20260509210415 | 10 | 117 | 4.8 | 6.4 | 0.00 | 1.27 | 1.27 | 99 | 1008.0 |
| 20260509205910 | 10 | 359 | 3.2 | 11.3 | 0.00 | 1.27 | 1.27 | 99 | 1007.9 |
| 20260509205409 | 10 | 295 | 0.0 | 6.4 | 0.00 | 1.27 | 1.27 | 99 | 1007.9 |
| 20260509204906 | 10 | 111 | 0.0 | 4.8 | 0.00 | 1.27 | 1.27 | 99 | 1008.1 |
| 20260509204402 | 10 | 51 | 0.0 | 6.4 | 0.00 | 1.27 | 1.27 | 99 | 1008.0 |
| 20260509203859 | 10 | 323 | 3.2 | 6.4 | 0.00 | 1.27 | 1.27 | 98 | 1007.9 |
| 20260509203355 | 10 | 54 | 3.2 | 9.7 | 0.00 | 1.27 | 1.27 | 99 | 1007.9 |
| 20260509202853 | 10 | 325 | 0.0 | 12.9 | 0.00 | 1.27 | 1.27 | 99 | 1008.0 |
| 20260509202348 | 10 | 342 | 1.6 | 12.9 | 0.00 | 1.27 | 1.27 | 99 | 1007.9 |
| 20260509201843 | 10 | 268 | 4.8 | 9.7 | 0.00 | 1.27 | 1.27 | 99 | 1008.0 |
| 20260509201339 | 10 | 23 | 1.6 | 6.4 | 0.00 | 1.27 | 1.27 | 99 | 1007.9 |
| 20260509200836 | 9 | 23 | 6.4 | 11.3 | 0.00 | 1.27 | 1.27 | 99 | 1008.0 |
| 20260509200331 | 9 | 105 | 6.4 | 12.9 | 0.00 | 1.27 | 1.27 | 99 | 1008.2 |
| 20260509195828 | 9 | 342 | 3.2 | 6.4 | 0.00 | 1.27 | 1.27 | 99 | 1008.2 |
| 20260509195328 | 9 | 14 | 6.4 | 6.4 | 0.00 | 1.27 | 1.27 | 99 | 1008.3 |
| 20260509194828 | 9 | 95 | 1.6 | 6.4 | 0.00 | 1.27 | 1.27 | 99 | 1008.3 |
| 20260509194324 | 9 | 303 | 3.2 | 4.8 | 0.18 | 1.27 | 1.27 | 99 | 1008.3 |
| 20260509193821 | 9 | 43 | 0.0 | 6.4 | 0.18 | 1.27 | 1.27 | 99 | 1008.3 |
| 20260509193321 | 9 | 119 | 3.2 | 11.3 | 0.13 | 1.24 | 1.24 | 99 | 1008.4 |
| 20260509192817 | 9 | 25 | 4.8 | 9.7 | 0.00 | 1.22 | 1.22 | 99 | 1008.6 |
| 20260509192313 | 8 | 36 | 3.2 | 6.4 | 0.00 | 1.22 | 1.22 | 99 | 1008.5 |
| 20260509191808 | 8 | 32 | 0.0 | 9.7 | 0.18 | 1.22 | 1.22 | 99 | 1008.5 |
| 20260509191305 | 9 | 353 | 4.8 | 16.1 | 0.30 | 1.22 | 1.22 | 99 | 1008.6 |
| 20260509190800 | 9 | 262 | 1.6 | 6.4 | 0.13 | 1.19 | 1.19 | 99 | 1008.7 |
| 20260509190258 | 8 | 283 | 0.0 | 3.2 | 0.00 | 1.17 | 1.17 | 99 | 1008.5 |
| 20260509185755 | 8 | 318 | 6.4 | 17.7 | 0.00 | 1.17 | 1.17 | 99 | 1008.5 |
| 20260509185251 | 8 | 48 | 8.0 | 11.3 | 0.00 | 1.17 | 1.17 | 99 | 1008.6 |
| 20260509184749 | 8 | 303 | 0.0 | 6.4 | 0.00 | 1.17 | 1.17 | 99 | 1008.6 |
| 20260509184246 | 8 | 355 | 4.8 | 4.8 | 0.00 | 1.17 | 1.17 | 99 | 1008.5 |
| 20260509183742 | 8 | 282 | 4.8 | 9.7 | 0.00 | 1.17 | 1.17 | 99 | 1008.6 |
| 20260509183237 | 8 | 215 | 3.2 | 4.8 | 0.00 | 1.17 | 1.17 | 99 | 1008.6 |
| 20260509182733 | 8 | 271 | 1.6 | 6.4 | 0.18 | 1.17 | 1.17 | 99 | 1008.7 |
| 20260509182231 | 8 | 348 | 6.4 | 6.4 | 0.18 | 1.17 | 1.17 | 99 | 1008.6 |
| 20260509181729 | 8 | 269 | 3.2 | 9.7 | 0.00 | 1.14 | 1.14 | 99 | 1008.5 |
| 20260509181226 | 8 | 158 | 3.2 | 4.8 | 0.00 | 1.14 | 1.14 | 99 | 1008.5 |
| 20260509180723 | 8 | 316 | 4.8 | 17.7 | 0.13 | 1.14 | 1.14 | 99 | 1008.5 |
| 20260509180219 | 8 | 354 | 1.6 | 11.3 | 0.00 | 1.12 | 1.12 | 99 | 1008.6 |
| 20260509175715 | 8 | 128 | 1.6 | 12.9 | 0.00 | 1.12 | 1.12 | 99 | 1008.7 |
| 20260509175212 | 8 | 351 | 6.4 | 25.7 | 0.18 | 1.12 | 1.12 | 99 | 1008.3 |
| 20260509174707 | 8 | 318 | 3.2 | 20.9 | 0.18 | 1.12 | 1.12 | 99 | 1008.6 |
| 20260509174203 | 8 | 2 | 9.7 | 12.9 | 0.00 | 1.09 | 1.09 | 99 | 1008.3 |
| 20260509173659 | 8 | 283 | 1.6 | 9.7 | 0.00 | 1.09 | 1.09 | 99 | 1008.4 |
| 20260509173155 | 8 | 24 | 6.4 | 9.7 | 0.00 | 1.09 | 1.09 | 99 | 1008.4 |
| 20260509172651 | 8 | 321 | 4.8 | 12.9 | 0.13 | 1.09 | 1.09 | 99 | 1008.4 |
| 20260509172148 | 8 | 24 | 3.2 | 12.9 | 0.30 | 1.09 | 1.09 | 99 | 1008.5 |
| 20260509171643 | 8 | 356 | 6.4 | 11.3 | 0.30 | 1.07 | 1.07 | 99 | 1008.2 |
| 20260509171140 | 8 | 336 | 6.4 | 11.3 | 0.30 | 1.04 | 1.04 | 99 | 1008.5 |
| 20260509170637 | 8 | 299 | 1.6 | 9.7 | 0.36 | 1.02 | 1.02 | 99 | 1008.6 |
| 20260509170133 | 8 | 7 | 3.2 | 11.3 | 0.30 | 0.99 | 0.99 | 99 | 1008.5 |
| 20260509165631 | 8 | 41 | 4.8 | 6.4 | 0.30 | 0.97 | 0.97 | 99 | 1008.6 |
| 20260509165127 | 8 | 48 | 1.6 | 9.7 | 0.18 | 0.94 | 0.94 | 99 | 1008.7 |
| 20260509164623 | 8 | 131 | 1.6 | 4.8 | 0.13 | 0.91 | 0.91 | 99 | 1008.6 |
| 20260509164119 | 8 | 35 | 1.6 | 6.4 | 0.00 | 0.89 | 0.89 | 99 | 1008.4 |
| 20260509163617 | 8 | 349 | 1.6 | 3.2 | 0.00 | 0.89 | 0.89 | 99 | 1008.6 |
| 20260509163112 | 8 | 290 | 1.6 | 6.4 | 0.18 | 0.89 | 0.89 | 99 | 1008.6 |
| 20260509162610 | 8 | 58 | 3.2 | 11.3 | 0.18 | 0.89 | 0.89 | 99 | 1008.6 |
| 20260509162105 | 8 | 278 | 3.2 | 6.4 | 0.00 | 0.86 | 0.86 | 99 | 1008.8 |
| 20260509161602 | 8 | 57 | 6.4 | 9.7 | 0.00 | 0.86 | 0.86 | 99 | 1008.6 |
| 20260509161102 | 8 | 315 | 1.6 | 3.2 | 0.00 | 0.86 | 0.86 | 99 | 1008.8 |
| 20260509160558 | 8 | 59 | 3.2 | 11.3 | 0.13 | 0.86 | 0.86 | 99 | 1009.0 |
| 20260509160054 | 8 | 8 | 3.2 | 4.8 | 0.13 | 0.86 | 0.86 | 99 | 1008.9 |
| 20260509155551 | 8 | 36 | 3.2 | 6.4 | 0.00 | 0.84 | 0.84 | 99 | 1008.7 |
| 20260509155047 | 8 | 276 | 3.2 | 4.8 | 0.00 | 0.84 | 0.84 | 99 | 1008.7 |
| 20260509154543 | 8 | 133 | 0.0 | 1.6 | 0.18 | 0.84 | 0.84 | 99 | 1008.9 |
| 20260509154041 | 8 | 320 | 6.4 | 9.7 | 0.18 | 0.84 | 0.84 | 98 | 1008.7 |
| 20260509153537 | 8 | 267 | 1.6 | 9.7 | 0.13 | 0.81 | 0.81 | 99 | 1008.9 |
| 20260509153034 | 8 | 203 | 3.2 | 9.7 | 0.13 | 0.81 | 0.81 | 98 | 1008.8 |
| 20260509152530 | 8 | 342 | 4.8 | 12.9 | 0.00 | 0.79 | 0.79 | 98 | 1009.1 |
| 20260509152027 | 8 | 354 | 4.8 | 9.7 | 0.18 | 0.79 | 0.79 | 98 | 1009.0 |
| 20260509151523 | 8 | 346 | 0.0 | 4.8 | 0.00 | 0.76 | 0.76 | 99 | 1009.0 |
| 20260509151021 | 8 | 294 | 6.4 | 9.7 | 0.00 | 0.76 | 0.76 | 98 | 1009.1 |
| 20260509150518 | 8 | 309 | 6.4 | 9.7 | 0.00 | 0.76 | 0.76 | 98 | 1008.9 |
| 20260509150017 | 8 | 306 | 6.4 | 9.7 | 0.13 | 0.76 | 0.76 | 98 | 1008.9 |
| 20260509145512 | 8 | 321 | 3.2 | 6.4 | 0.13 | 0.76 | 0.76 | 98 | 1009.2 |
| 20260509145007 | 8 | 278 | 4.8 | 9.7 | 0.00 | 0.74 | 0.74 | 98 | 1009.1 |
| 20260509144505 | 8 | 338 | 4.8 | 9.7 | 0.18 | 0.74 | 0.74 | 98 | 1009.3 |
| 20260509144002 | 8 | 290 | 3.2 | 3.2 | 0.18 | 0.74 | 0.74 | 98 | 1009.3 |
| 20260509143458 | 8 | 15 | 4.8 | 12.9 | 0.00 | 0.71 | 0.71 | 98 | 1009.3 |
| 20260509142955 | 8 | 35 | 1.6 | 6.4 | 0.00 | 0.71 | 0.71 | 98 | 1009.2 |
| 20260509142452 | 8 | 352 | 6.4 | 11.3 | 0.18 | 0.71 | 0.71 | 98 | 1009.6 |
| 20260509141947 | 8 | 247 | 1.6 | 6.4 | 0.00 | 0.69 | 0.69 | 98 | 1009.3 |
| 20260509141444 | 8 | 328 | 3.2 | 6.4 | 0.13 | 0.69 | 0.69 | 98 | 1009.3 |
| 20260509140941 | 8 | 343 | 3.2 | 9.7 | 0.13 | 0.69 | 0.69 | 98 | 1009.2 |
| 20260509140437 | 8 | 320 | 3.2 | 9.7 | 0.00 | 0.66 | 0.66 | 98 | 1009.3 |
| 20260509135936 | 8 | 191 | 4.8 | 6.4 | 0.18 | 0.66 | 0.66 | 98 | 1009.6 |
| 20260509135433 | 8 | 54 | 9.7 | 16.1 | 0.18 | 0.66 | 0.66 | 98 | 1009.3 |
| 20260509134930 | 8 | 272 | 0.0 | 4.8 | 0.00 | 0.64 | 0.64 | 98 | 1009.5 |
| 20260509134427 | 8 | 285 | 3.2 | 6.4 | 0.00 | 0.64 | 0.64 | 97 | 1009.3 |
| 20260509133925 | 8 | 221 | 3.2 | 6.4 | 0.13 | 0.64 | 0.64 | 97 | 1009.3 |
| 20260509133421 | 8 | 52 | 4.8 | 11.3 | 0.13 | 0.64 | 0.64 | 97 | 1009.3 |
| 20260509132919 | 8 | 290 | 3.2 | 6.4 | 0.00 | 0.61 | 0.61 | 98 | 1009.3 |
| 20260509132417 | 8 | 289 | 6.4 | 6.4 | 0.00 | 0.61 | 0.61 | 98 | 1009.5 |
| 20260509131914 | 8 | 266 | 1.6 | 3.2 | 0.00 | 0.61 | 0.61 | 99 | 1009.5 |
| 20260509131411 | 8 | 295 | 1.6 | 1.6 | 0.00 | 0.61 | 0.61 | 99 | 1009.3 |
| 20260509130908 | 8 | 21 | 3.2 | 3.2 | 0.18 | 0.61 | 0.61 | 99 | 1009.3 |
| 20260509130403 | 8 | 328 | 1.6 | 3.2 | 0.18 | 0.61 | 0.61 | 99 | 1009.1 |
| 20260509125900 | 8 | 286 | 3.2 | 3.2 | 0.00 | 0.58 | 0.58 | 99 | 1009.2 |
| 20260509125356 | 8 | 254 | 0.0 | 3.2 | 0.00 | 0.58 | 0.58 | 99 | 1009.1 |
| 20260509124852 | 8 | 287 | 1.6 | 4.8 | 0.00 | 0.58 | 0.58 | 99 | 1009.1 |
| 20260509124350 | 8 | 317 | 1.6 | 3.2 | 0.00 | 0.58 | 0.58 | 99 | 1009.2 |
| 20260509123848 | 8 | 268 | 3.2 | 3.2 | 0.00 | 0.58 | 0.58 | 99 | 1009.0 |
| 20260509123345 | 7 | 284 | 1.6 | 3.2 | 0.00 | 0.58 | 0.58 | 99 | 1009.2 |
| 20260509122840 | 7 | 271 | 1.6 | 3.2 | 0.00 | 0.58 | 0.58 | 99 | 1009.3 |
| 20260509122337 | 7 | 256 | 1.6 | 3.2 | 0.13 | 0.58 | 0.58 | 99 | 1009.5 |
| 20260509121834 | 7 | 278 | 0.0 | 1.6 | 0.13 | 0.58 | 0.58 | 99 | 1009.6 |
| 20260509121331 | 7 | 293 | 1.6 | 1.6 | 0.00 | 0.56 | 0.56 | 99 | 1009.6 |
| 20260509120830 | 7 | 296 | 0.0 | 0.0 | 0.00 | 0.56 | 0.56 | 99 | 1009.7 |
| 20260509120327 | 7 | 287 | 1.6 | 3.2 | 0.00 | 0.56 | 0.56 | 99 | 1009.6 |
| 20260509115825 | 7 | 300 | 0.0 | 4.8 | 0.00 | 0.56 | 0.56 | 99 | 1009.5 |
| 20260509115322 | 7 | 283 | 1.6 | 3.2 | 0.00 | 0.56 | 0.56 | 99 | 1009.6 |
| 20260509114820 | 7 | 355 | 0.0 | 1.6 | 0.00 | 0.56 | 0.56 | 99 | 1009.3 |
| 20260509114318 | 7 | 294 | 3.2 | 3.2 | 0.00 | 0.56 | 0.56 | 99 | 1009.7 |
| 20260509113817 | 7 | 19 | 0.0 | 4.8 | 0.18 | 0.56 | 0.56 | 99 | 1009.5 |
| 20260509113313 | 7 | 299 | 3.2 | 9.7 | 0.18 | 0.56 | 0.56 | 99 | 1009.5 |
| 20260509112810 | 7 | 313 | 1.6 | 4.8 | 0.00 | 0.53 | 0.53 | 99 | 1009.5 |
| 20260509112308 | 7 | 278 | 4.8 | 6.4 | 0.00 | 0.53 | 0.53 | 99 | 1009.2 |
| 20260509111804 | 7 | 280 | 4.8 | 4.8 | 0.00 | 0.53 | 0.53 | 99 | 1009.6 |
| 20260509111301 | 7 | 274 | 3.2 | 3.2 | 0.00 | 0.53 | 0.53 | 99 | 1009.6 |
| 20260509110759 | 7 | 298 | 3.2 | 4.8 | 0.00 | 0.53 | 0.53 | 99 | 1009.6 |
| 20260509110255 | 7 | 280 | 1.6 | 3.2 | 0.00 | 0.53 | 0.53 | 99 | 1009.7 |
| 20260509105753 | 6 | 275 | 1.6 | 3.2 | 0.00 | 0.53 | 0.53 | 99 | 1009.6 |
| 20260509105251 | 6 | 276 | 3.2 | 3.2 | 0.00 | 0.53 | 0.53 | 99 | 1009.6 |
| 20260509104747 | 6 | 292 | 3.2 | 4.8 | 0.00 | 0.53 | 0.53 | 99 | 1009.6 |
| 20260509104244 | 6 | 272 | 1.6 | 3.2 | 0.00 | 0.53 | 0.53 | 99 | 1009.7 |
| 20260509103743 | 6 | 289 | 1.6 | 3.2 | 0.00 | 0.53 | 0.53 | 99 | 1009.7 |
| 20260509103239 | 6 | 273 | 3.2 | 4.8 | 0.00 | 0.53 | 0.53 | 99 | 1009.5 |
| 20260509102738 | 6 | 286 | 1.6 | 3.2 | 0.00 | 0.53 | 0.53 | 99 | 1009.7 |
| 20260509102234 | 6 | 273 | 3.2 | 3.2 | 0.00 | 0.53 | 0.53 | 99 | 1009.7 |
| 20260509101731 | 6 | 294 | 3.2 | 3.2 | 0.00 | 0.53 | 0.53 | 99 | 1009.6 |
| 20260509101227 | 6 | 298 | 1.6 | 3.2 | 0.00 | 0.53 | 0.53 | 99 | 1009.7 |
| 20260509100724 | 6 | 295 | 1.6 | 3.2 | 0.00 | 0.53 | 0.53 | 99 | 1009.7 |
| 20260509100222 | 6 | 301 | 3.2 | 4.8 | 0.00 | 0.53 | 0.53 | 99 | 1009.8 |
| 20260509095718 | 6 | 275 | 3.2 | 4.8 | 0.00 | 0.53 | 0.53 | 99 | 1009.7 |
| 20260509095216 | 6 | 297 | 4.8 | 4.8 | 0.00 | 0.53 | 0.53 | 99 | 1009.6 |
| 20260509094712 | 6 | 299 | 0.0 | 3.2 | 0.00 | 0.53 | 0.53 | 99 | 1009.7 |
| 20260509094209 | 6 | 289 | 0.0 | 3.2 | 0.00 | 0.53 | 0.53 | 99 | 1009.8 |
| 20260509093708 | 6 | 284 | 3.2 | 4.8 | 0.13 | 0.53 | 0.53 | 99 | 1009.7 |
| 20260509093204 | 6 | 284 | 1.6 | 4.8 | 0.30 | 0.53 | 0.53 | 99 | 1009.8 |
| 20260509092702 | 6 | 311 | 0.0 | 1.6 | 0.30 | 0.51 | 0.51 | 99 | 1009.8 |
| 20260509092200 | 6 | 291 | 1.6 | 1.6 | 0.13 | 0.48 | 0.48 | 99 | 1009.8 |
| 20260509091658 | 6 | 291 | 0.0 | 0.0 | 0.00 | 0.46 | 0.46 | 99 | 1009.8 |
| 20260509091154 | 6 | 339 | 0.0 | 1.6 | 0.18 | 0.46 | 0.46 | 99 | 1009.7 |
| 20260509090652 | 6 | 287 | 1.6 | 1.6 | 0.13 | 0.43 | 0.43 | 99 | 1010.0 |
| 20260509090149 | 6 | 296 | 1.6 | 3.2 | 0.13 | 0.43 | 0.43 | 99 | 1010.0 |
| 20260509085647 | 6 | 292 | 1.6 | 3.2 | 0.00 | 0.41 | 0.41 | 99 | 1009.6 |
| 20260509085142 | 6 | 253 | 1.6 | 3.2 | 0.00 | 0.41 | 0.41 | 99 | 1009.8 |
| 20260509084640 | 6 | 318 | 3.2 | 4.8 | 0.00 | 0.41 | 0.41 | 99 | 1009.5 |
| 20260509084137 | 6 | 339 | 1.6 | 3.2 | 0.00 | 0.41 | 0.41 | 99 | 1009.5 |
| 20260509083634 | 6 | 283 | 1.6 | 3.2 | 0.00 | 0.41 | 0.41 | 99 | 1009.7 |
| 20260509083130 | 6 | 306 | 0.0 | 1.6 | 0.00 | 0.41 | 0.41 | 99 | 1009.7 |
| 20260509082628 | 6 | 355 | 0.0 | 0.0 | 0.00 | 0.41 | 0.41 | 99 | 1009.7 |
| 20260509082125 | 6 | 310 | 0.0 | 0.0 | 0.00 | 0.41 | 0.41 | 99 | 1009.7 |
| 20260509081622 | 6 | 279 | 0.0 | 1.6 | 0.00 | 0.41 | 0.41 | 99 | 1009.8 |
| 20260509081119 | 6 | 280 | 1.6 | 1.6 | 0.00 | 0.41 | 0.41 | 99 | 1009.6 |
| 20260509080617 | 6 | 295 | 1.6 | 1.6 | 0.18 | 0.41 | 0.41 | 99 | 1009.8 |
| 20260509080114 | 6 | 263 | 0.0 | 0.0 | 0.00 | 0.38 | 0.38 | 99 | 1010.0 |
| 20260509075612 | 6 | 278 | 0.0 | 0.0 | 0.00 | 0.38 | 0.38 | 99 | 1010.2 |
| 20260509075110 | 6 | 299 | 0.0 | 0.0 | 0.00 | 0.38 | 0.38 | 99 | 1010.3 |
| 20260509074606 | 6 | 351 | 0.0 | 0.0 | 0.18 | 0.38 | 0.38 | 99 | 1010.4 |
| 20260509074103 | 6 | 271 | 0.0 | 0.0 | 0.18 | 0.38 | 0.38 | 99 | 1010.5 |
| 20260509073600 | 6 | 270 | 0.0 | 0.0 | 0.00 | 0.36 | 0.36 | 99 | 1010.4 |
| 20260509073056 | 6 | 294 | 0.0 | 1.6 | 0.00 | 0.36 | 0.36 | 99 | 1010.6 |
| 20260509072553 | 6 | 306 | 0.0 | 0.0 | 0.13 | 0.36 | 0.36 | 99 | 1010.5 |
| 20260509072049 | 6 | 44 | 0.0 | 1.6 | 0.13 | 0.36 | 0.36 | 99 | 1010.4 |
| 20260509071546 | 6 | 227 | 0.0 | 0.0 | 0.18 | 0.33 | 0.33 | 99 | 1010.3 |
| 20260509071044 | 6 | 227 | 0.0 | 0.0 | 0.30 | 0.33 | 0.33 | 99 | 1010.3 |
| 20260509070541 | 6 | 106 | 0.0 | 1.6 | 0.30 | 0.30 | 0.30 | 99 | 1010.7 |
| 20260509070037 | 6 | 137 | 0.0 | 1.6 | 0.18 | 0.28 | 0.28 | 99 | 1010.7 |
| 20260509065532 | 6 | 295 | 0.0 | 0.0 | 0.13 | 0.25 | 0.25 | 99 | 1010.5 |
| 20260509065029 | 6 | 294 | 0.0 | 0.0 | 0.30 | 0.25 | 0.25 | 99 | 1010.7 |
| 20260509064527 | 6 | 137 | 0.0 | 0.0 | 0.30 | 0.23 | 0.23 | 99 | 1010.5 |
| 20260509064025 | 6 | 131 | 0.0 | 0.0 | 0.13 | 0.20 | 0.20 | 99 | 1011.0 |
| 20260509063519 | 6 | 356 | 0.0 | 1.6 | 0.18 | 0.18 | 0.18 | 99 | 1010.8 |
| 20260509063017 | 6 | 60 | 1.6 | 1.6 | 0.18 | 0.18 | 0.18 | 99 | 1010.9 |
| 20260509062514 | 6 | 324 | 0.0 | 1.6 | 0.00 | 0.15 | 0.15 | 99 | 1010.8 |
| 20260509062012 | 6 | 316 | 1.6 | 1.6 | 0.13 | 0.15 | 0.15 | 99 | 1010.9 |
| 20260509061509 | 6 | 292 | 0.0 | 1.6 | 0.13 | 0.15 | 0.15 | 99 | 1010.9 |
| 20260509061006 | 7 | 289 | 0.0 | 1.6 | 0.18 | 0.13 | 0.13 | 99 | 1011.0 |
| 20260509060503 | 7 | 285 | 0.0 | 1.6 | 0.18 | 0.13 | 0.13 | 99 | 1010.9 |
| 20260509055959 | 7 | 263 | 3.2 | 4.8 | 0.13 | 0.10 | 0.10 | 99 | 1010.8 |
| 20260509055454 | 7 | 74 | 0.0 | 0.0 | 0.18 | 0.08 | 0.08 | 99 | 1010.9 |
| 20260509054951 | 7 | 63 | 0.0 | 1.6 | 0.18 | 0.08 | 0.08 | 99 | 1011.0 |
| 20260509054447 | 7 | 302 | 1.6 | 3.2 | 0.00 | 0.05 | 0.05 | 99 | 1011.0 |
| 20260509053946 | 7 | 75 | 0.0 | 1.6 | 0.18 | 0.05 | 0.05 | 98 | 1011.0 |
| 20260509053444 | 7 | 80 | 0.0 | 1.6 | 0.18 | 0.05 | 0.05 | 98 | 1011.3 |
| 20260509052941 | 7 | 58 | 0.0 | 1.6 | 0.00 | 0.03 | 0.03 | 98 | 1011.3 |
| 20260509052438 | 7 | 71 | 3.2 | 6.4 | 0.00 | 0.03 | 0.03 | 98 | 1011.2 |
| 20260509051936 | 7 | 31 | 0.0 | 3.2 | 0.00 | 0.03 | 0.03 | 98 | 1011.2 |
| 20260509051433 | 7 | 57 | 3.2 | 3.2 | 0.00 | 0.03 | 0.03 | 97 | 1010.8 |
| 20260509050930 | 7 | 122 | 1.6 | 3.2 | 0.00 | 0.03 | 0.03 | 97 | 1010.9 |
| 20260509050427 | 7 | 76 | 3.2 | 9.7 | 0.13 | 0.03 | 0.03 | 96 | 1010.8 |
| 20260509045924 | 7 | 87 | 6.4 | 9.7 | 0.00 | 0.00 | 0.00 | 97 | 1010.9 |
| 20260509045421 | 7 | 32 | 0.0 | 1.6 | 0.00 | 0.00 | 0.00 | 98 | 1010.6 |
| 20260509044917 | 7 | 213 | 0.0 | 1.6 | 0.00 | 0.00 | 0.00 | 98 | 1010.6 |
| 20260509044416 | 7 | 87 | 0.0 | 0.0 | 0.00 | 0.00 | 0.00 | 98 | 1010.7 |
| 20260509043912 | 7 | 87 | 0.0 | 0.0 | 0.00 | 0.00 | 0.00 | 98 | 1010.8 |
| 20260509043408 | 7 | 261 | 0.0 | 0.0 | 0.00 | 0.00 | 0.00 | 97 | 1010.7 |
| 20260509042904 | 7 | 36 | 0.0 | 0.0 | 0.00 | 0.00 | 0.00 | 97 | 1010.6 |
| 20260509042401 | 7 | 337 | 0.0 | 0.0 | 0.00 | 0.00 | 0.00 | 97 | 1010.9 |
| 20260509041857 | 7 | 272 | 0.0 | 3.2 | 0.00 | 0.00 | 0.00 | 96 | 1010.9 |
| 20260509041354 | 7 | 96 | 1.6 | 9.7 | 0.00 | 0.00 | 0.00 | 96 | 1011.0 |
| 20260509040852 | 7 | 79 | 3.2 | 6.4 | 0.00 | 0.00 | 0.00 | 96 | 1010.7 |
| 20260509040350 | 7 | 85 | 1.6 | 6.4 | 0.00 | 0.00 | 0.00 | 96 | 1010.8 |
| 20260509035847 | 7 | 76 | 4.8 | 11.3 | 0.18 | 0.33 | 0.33 | 96 | 1011.3 |
| 20260509035344 | 7 | 94 | 3.2 | 6.4 | 0.18 | 0.33 | 0.33 | 96 | 1011.3 |
| 20260509034840 | 7 | 100 | 6.4 | 9.7 | 0.00 | 0.30 | 0.30 | 96 | 1011.4 |
| 20260509034338 | 7 | 80 | 1.6 | 11.3 | 0.00 | 0.30 | 0.30 | 95 | 1011.4 |
| 20260509033834 | 7 | 75 | 0.0 | 6.4 | 0.00 | 0.30 | 0.30 | 94 | 1011.4 |
| 20260509033332 | 7 | 45 | 0.0 | 6.4 | 0.00 | 0.30 | 0.30 | 94 | 1011.4 |
| 20260509032828 | 7 | 143 | 0.0 | 3.2 | 0.00 | 0.30 | 0.30 | 94 | 1011.3 |
| 20260509032326 | 7 | 355 | 4.8 | 9.7 | 0.00 | 0.30 | 0.30 | 94 | 1011.3 |
| 20260509031824 | 7 | 173 | 1.6 | 3.2 | 0.00 | 0.30 | 0.30 | 94 | 1011.4 |
| 20260509031320 | 7 | 42 | 1.6 | 3.2 | 0.00 | 0.30 | 0.30 | 94 | 1011.0 |
| 20260509030818 | 7 | 81 | 0.0 | 3.2 | 0.00 | 0.30 | 0.30 | 94 | 1011.2 |
| 20260509030316 | 7 | 78 | 1.6 | 4.8 | 0.00 | 0.30 | 0.30 | 94 | 1011.2 |
| 20260509025812 | 7 | 79 | 0.0 | 6.4 | 0.00 | 0.30 | 0.30 | 94 | 1011.0 |
| 20260509025308 | 7 | 250 | 1.6 | 3.2 | 0.00 | 0.30 | 0.30 | 94 | 1011.2 |
| 20260509024804 | 7 | 241 | 1.6 | 9.7 | 0.00 | 0.30 | 0.30 | 94 | 1011.2 |
| 20260509024300 | 7 | 213 | 3.2 | 4.8 | 0.00 | 0.30 | 0.30 | 95 | 1011.3 |
| 20260509023757 | 7 | 63 | 0.0 | 1.6 | 0.00 | 0.30 | 0.30 | 95 | 1011.5 |
| 20260509023254 | 7 | 3 | 0.0 | 3.2 | 0.00 | 0.30 | 0.30 | 95 | 1011.3 |
| 20260509022750 | 6 | 106 | 0.0 | 4.8 | 0.00 | 0.30 | 0.30 | 96 | 1011.2 |
| 20260509022248 | 6 | 273 | 1.6 | 1.6 | 0.00 | 0.30 | 0.30 | 96 | 1011.0 |
| 20260509021745 | 6 | 7 | 0.0 | 4.8 | 0.00 | 0.30 | 0.30 | 96 | 1011.2 |
| 20260509021242 | 6 | 328 | 0.0 | 1.6 | 0.00 | 0.30 | 0.30 | 95 | 1011.2 |
| 20260509020740 | 6 | 340 | 0.0 | 1.6 | 0.00 | 0.30 | 0.30 | 95 | 1011.3 |
| 20260509020237 | 7 | 357 | 0.0 | 1.6 | 0.00 | 0.30 | 0.30 | 94 | 1011.2 |
| 20260509015735 | 7 | 266 | 0.0 | 1.6 | 0.00 | 0.30 | 0.30 | 94 | 1011.0 |
| 20260509015233 | 7 | 240 | 0.0 | 1.6 | 0.00 | 0.30 | 0.30 | 93 | 1011.0 |
| 20260509014729 | 7 | 155 | 0.0 | 3.2 | 0.00 | 0.30 | 0.30 | 93 | 1011.0 |
| 20260509014226 | 7 | 323 | 0.0 | 3.2 | 0.00 | 0.30 | 0.30 | 92 | 1011.0 |
| 20260509013723 | 7 | 32 | 0.0 | 1.6 | 0.00 | 0.30 | 0.30 | 92 | 1010.9 |
| 20260509013218 | 7 | 66 | 0.0 | 4.8 | 0.00 | 0.30 | 0.30 | 91 | 1011.2 |
| 20260509012715 | 7 | 64 | 0.0 | 9.7 | 0.00 | 0.30 | 0.30 | 91 | 1011.0 |
| 20260509012212 | 7 | 135 | 1.6 | 1.6 | 0.00 | 0.30 | 0.30 | 91 | 1010.8 |
| 20260509011710 | 7 | 214 | 0.0 | 1.6 | 0.00 | 0.30 | 0.30 | 91 | 1010.8 |
| 20260509011207 | 7 | 28 | 0.0 | 1.6 | 0.00 | 0.30 | 0.30 | 91 | 1010.7 |
| 20260509010705 | 7 | 103 | 1.6 | 1.6 | 0.00 | 0.30 | 0.30 | 91 | 1010.7 |